[[{"header":{"parameterUnit":"m.s-1","parameterCategory":1,"la1":30.2992,"la2":30.254,"lo1":-89.0895,"lo2":-89.0443,"dy":0.0025,"dx":0.0025,"nx":19,"ny":19,"refTime":"2026-05-22T21:00:00:Z","depth":0,"parameterNumber":2,"parameterNumberName":"U-component_of_WINDS"},"data":[0,0,0,-0.1768,-0.177,-0.1876,-0.1876,-0.1995,-0.1995,0,0,0,0,0,0,0,0,0,0,0,-0.1724,-0.1724,-0.1768,-0.177,-0.1875,-0.1876,-0.1994,-0.1995,0,0,0,0,0,0,0,0,0,0,0,-0.1723,-0.1724,-0.1724,-0.177,-0.1875,-0.1876,-0.1994,-0.1921,0,0,0,0,0,0,0,0,0,0,-0.1821,-0.1767,-0.1724,-0.1724,-0.1771,-0.1875,-0.1876,-0.1918,-0.1926,-0.1939,0,-0.1944,0,-0.1971,-0.2002,-0.2002,0,0,0,-0.178,-0.1761,-0.1801,-0.1724,-0.1771,-0.1875,-0.1831,-0.1922,-0.1931,-0.1949,-0.1946,-0.1951,-0.1973,-0.2003,-0.2003,-0.2038,-0.2038,0,0,-0.1774,-0.1736,-0.1794,-0.1806,-0.1785,-0.1827,-0.1834,-0.1928,-0.1924,-0.1947,-0.1954,-0.1975,-0.2003,-0.2004,-0.2038,-0.2038,0,0,0,-0.175,-0.1732,-0.177,-0.18,-0.182,-0.183,-0.1838,-0.192,-0.1935,-0.1956,-0.1977,-0.2004,-0.2005,-0.2039,-0.2038,-0.1984,0,0,0,-0.1747,-0.1718,-0.1767,-0.1745,-0.1818,-0.1871,-0.1827,-0.1929,-0.194,-0.1976,-0.2004,-0.2006,-0.2039,-0.2038,-0.1987,-0.1966,0,0,0,-0.1721,-0.1715,-0.1726,-0.1742,-0.1786,-0.187,-0.1891,-0.1932,-0.1953,-0.2002,-0.2006,-0.2039,-0.2039,-0.1989,-0.1969,-0.1964,0,0,0,-0.1683,-0.1678,-0.1724,-0.1727,-0.1785,-0.1835,-0.1891,-0.1931,-0.1967,-0.2004,-0.2039,-0.2038,-0.1989,-0.1971,-0.1965,-0.1952,-0.1942,0,0,-0.1656,-0.1673,-0.1678,-0.1723,-0.1754,-0.1822,-0.1848,-0.1918,-0.1959,-0.201,-0.2011,-0.1986,-0.1969,-0.1964,-0.1902,-0.1894,0,0,0,-0.1657,-0.1659,-0.1676,-0.1707,-0.1759,-0.1803,-0.1873,-0.19,-0.1944,-0.1976,-0.1984,-0.1975,-0.1973,-0.1969,-0.1962,-0.1963,-0.2034,-0.2034,-0.2034,-0.1564,-0.1615,-0.1626,-0.1689,-0.1719,-0.1791,-0.1821,-0.1869,-0.1913,-0.1914,-0.1929,-0.1885,-0.1878,-0.1874,-0.1874,-0.1926,-0.1926,-0.1926,-0.1926,-0.1529,-0.1541,-0.1598,-0.1629,-0.1683,-0.1711,-0.1781,-0.1811,-0.1846,-0.1878,-0.1879,-0.1909,-0.1863,-0.1867,-0.1922,-0.1923,-0.1923,-0.1924,-0.1924,-0.1474,-0.1489,-0.1519,-0.157,-0.1604,-0.1669,-0.1699,-0.1749,-0.1796,-0.1796,-0.1819,-0.182,-0.1827,-0.1803,-0.1803,-0.1803,-0.1803,-0.1803,-0.1803,-0.1406,-0.1442,-0.146,-0.1514,-0.1541,-0.1582,-0.1654,-0.1683,-0.1727,-0.1761,-0.1762,-0.1805,-0.1849,-0.1859,-0.1801,-0.1801,-0.1801,-0.1801,-0.1802,-0.1352,-0.1371,-0.1399,-0.1426,-0.1494,-0.1524,-0.1586,-0.164,-0.1671,-0.1685,-0.1728,-0.1752,-0.1775,-0.178,-0.1789,-0.1717,-0.1717,-0.1717,-0.1717,-0.1306,-0.1321,-0.1361,-0.1399,-0.1444,-0.1502,-0.1534,-0.1591,-0.1653,-0.1676,-0.1693,-0.1709,-0.1712,-0.1733,-0.174,-0.1749,-0.1668,-0.1668,-0.1668,-0.1276,-0.1297,-0.1314,-0.1372,-0.1429,-0.1477,-0.151,-0.1554,-0.1629,-0.1667,-0.1695,-0.1697,-0.1723,-0.1728,-0.1766,-0.1775,-0.1793,0,0]},{"header":{"parameterUnit":"m.s-1","parameterCategory":1,"la1":30.2992,"la2":30.254,"lo1":-89.0895,"lo2":-89.0443,"dy":0.0025,"dx":0.0025,"nx":19,"ny":19,"refTime":"2026-05-22T21:00:00:Z","depth":0,"parameterNumber":3,"parameterNumberName":"V-component_of_WINDS"},"data":[0,0,0,3.5124,3.5124,3.5111,3.5111,3.5111,3.5112,0,0,0,0,0,0,0,0,0,0,0,3.5138,3.5138,3.5124,3.5124,3.5111,3.5111,3.5111,3.5112,0,0,0,0,0,0,0,0,0,0,0,3.5138,3.5138,3.5139,3.5124,3.5111,3.5111,3.5111,3.5115,0,0,0,0,0,0,0,0,0,0,3.5124,3.5148,3.5138,3.5139,3.5124,3.5111,3.5111,3.5115,3.5115,3.5125,0,3.5136,0,3.5124,3.5113,3.5113,0,0,0,3.5116,3.5148,3.5135,3.5139,3.5124,3.5111,3.5114,3.5115,3.5114,3.5125,3.5136,3.5136,3.5124,3.5113,3.5113,3.5195,3.5196,0,0,3.5117,3.5141,3.5135,3.5135,3.5139,3.5115,3.5114,3.5114,3.5128,3.5136,3.5135,3.5124,3.5113,3.5113,3.5195,3.5195,0,0,0,3.5124,3.5142,3.5129,3.5136,3.5132,3.5115,3.5114,3.5128,3.5122,3.5135,3.5124,3.5113,3.5113,3.5194,3.5195,3.5256,0,0,0,3.5124,3.5146,3.5129,3.5144,3.5133,3.513,3.5128,3.5122,3.5121,3.5124,3.5113,3.5113,3.5193,3.5194,3.5252,3.528,0,0,0,3.5135,3.5147,3.5149,3.5146,3.5141,3.513,3.5123,3.5121,3.5115,3.5113,3.5114,3.5192,3.5194,3.5249,3.5275,3.5309,0,0,0,3.5154,3.5204,3.5151,3.5201,3.5142,3.5167,3.5123,3.5141,3.5146,3.5113,3.5193,3.5195,3.5248,3.5272,3.5306,3.5342,3.5359,0,0,3.523,3.5214,3.5242,3.5194,3.5235,3.5167,3.5218,3.52,3.5177,3.519,3.5192,3.5253,3.5275,3.5308,3.5448,3.5462,0,0,0,3.5274,3.5294,3.53,3.5306,3.5294,3.5285,3.5256,3.5249,3.5259,3.5189,3.5274,3.5286,3.5305,3.5321,3.5332,3.5347,3.5203,3.5203,3.5203,3.5417,3.5385,3.5429,3.5396,3.5402,3.5372,3.5375,3.536,3.5326,3.5347,3.5351,3.5439,3.5459,3.5468,3.5483,3.5367,3.5367,3.5367,3.5368,3.5525,3.5549,3.5502,3.5528,3.5494,3.5515,3.5488,3.5463,3.5478,3.5434,3.5449,3.5403,3.5484,3.5496,3.5372,3.5371,3.5371,3.537,3.537,3.5615,3.5621,3.5612,3.5617,3.5625,3.5589,3.5605,3.5574,3.5544,3.5559,3.5559,3.5558,3.5553,3.5561,3.5562,3.5562,3.5562,3.5562,3.5562,3.5712,3.57,3.5717,3.5708,3.5707,3.5703,3.5673,3.5671,3.5662,3.5637,3.5637,3.5601,3.5498,3.5473,3.5567,3.5566,3.5566,3.5565,3.5565,3.5834,3.5801,3.5828,3.5828,3.5814,3.5823,3.5783,3.5783,3.5777,3.5786,3.5746,3.5675,3.5656,3.5646,3.5625,3.5753,3.5753,3.5753,3.5753,3.591,3.5897,3.5917,3.5919,3.5916,3.5882,3.5913,3.589,3.5861,3.5856,3.5832,3.5802,3.5793,3.5779,3.5766,3.5746,3.5902,3.5902,3.5902,3.5982,3.5968,3.6001,3.5972,3.5958,3.5947,3.5975,3.5979,3.5939,3.5908,3.5851,3.5844,3.5794,3.5779,3.5747,3.5729,3.5691,0,0]}]]